This is the latest recevied weather packets stored in our database for station/object AJ7DN. If no packets are shown the sender has not sent any weather packets the latest 10 day(s).
| Time | Temp. | Humidity | Pressure | Rain* | Wind** | Luminosity | Snow |
|---|---|---|---|---|---|---|---|
| 1777423794 | 15.56° C | 54% | 1027.1 hPa | 0 mm | - | 101 W/m² | - |
| 1777423489 | 15.56° C | 54% | 1027.1 hPa | 0 mm | - | 82 W/m² | - |
| 1777423185 | 15.56° C | 55% | 1027.3 hPa | 0 mm | - | 69 W/m² | - |
| 1777422879 | 15.56° C | 52% | 1027.3 hPa | 0 mm | - | 88 W/m² | - |
| 1777422575 | 15.56° C | 52% | 1027.1 hPa | 0 mm | - | 75 W/m² | - |
| 1777422271 | 15.56° C | 52% | 1027.2 hPa | 0 mm | - | 75 W/m² | - |
| 1777421970 | 15.56° C | 53% | 1027.2 hPa | 0 mm | - | 92 W/m² | - |
| 1777421666 | 15.56° C | 53% | 1027.3 hPa | 0 mm | - | 102 W/m² | - |
| 1777421361 | 15.56° C | 51% | 1027.1 hPa | 0 mm | - | 115 W/m² | - |
| 1777421057 | 15.56° C | 52% | 1027 hPa | 0 mm | - | 112 W/m² | - |
| 1777420754 | 15.56° C | 52% | 1027.2 hPa | 0 mm | - | 113 W/m² | - |
| 1777420450 | 15.56° C | 50% | 1027 hPa | 0 mm | - | 119 W/m² | - |
| 1777420147 | 15.56° C | 51% | 1027.2 hPa | 0 mm | - | 142 W/m² | - |
| 1777419843 | 15.56° C | 51% | 1027.4 hPa | 0 mm | - | 162 W/m² | - |
| 1777419540 | 15.56° C | 52% | 1027.3 hPa | 0 mm | - | 161 W/m² | - |
| 1777419239 | 15.56° C | 53% | 1027.1 hPa | 0 mm | - | 139 W/m² | - |
| 1777418936 | 15.56° C | 53% | 1027.4 hPa | 0 mm | - | 130 W/m² | - |
| 1777418631 | 15.56° C | 53% | 1027.3 hPa | 0 mm | - | 138 W/m² | - |
| 1777418328 | 15° C | 55% | 1027.2 hPa | 0 mm | - | 117 W/m² | - |
| 1777418024 | 15° C | 53% | 1027.6 hPa | 0 mm | - | 108 W/m² | - |
| 1777417720 | 15.56° C | 54% | 1027.4 hPa | 0 mm | - | 93 W/m² | - |
| 1777417415 | 15.56° C | 53% | 1027.4 hPa | 0 mm | - | 98 W/m² | - |
| 1777417112 | 15.56° C | 55% | 1027.5 hPa | 0 mm | - | 104 W/m² | - |
| 1777416807 | 15.56° C | 53% | 1027.4 hPa | 0 mm | - | 131 W/m² | - |
| 1777416503 | 15.56° C | 52% | 1027.5 hPa | 0 mm | - | 140 W/m² | - |
* Rain latest hour (hover to see other rain measurements)
** Current wind speed in m/s (hover to see current wind gust speed)